カタログに戻る

COSMOS 1275 DEB

運用中PO
NORAD 42170·DEBRIS·🇷🇺 Russia

打ち上げ Jun 4, 1981 から Plesetsk Cosmodrome

Loading…

次のパス (今後24時間)

TLE

古いSource: Space-Track

元期: Aug 18, 2026, 06:13 UTC

1 42170U 81053SJ  26230.25903394  .00000403  00000-0  54920-3 0  9999
2 42170  82.7581 230.9136 0196106 159.0727 201.8586 13.49104893593655

AllMySatでCOSMOS 1275 DEBをリアルタイム追跡

Download on the App Store